❰ Current Conditions

NWS Regional Weather Roundup - New England Area
REGIONAL WEATHER ROUNDUP
NATIONAL WEATHER SERVICE BOSTON/NORTON MA
500 PM EDT WED APR 24 2024

NOTE:  "FAIR" INDICATES FEW OR NO CLOUDS BELOW 12,000 FEET WITH NO 
SIGNIFICANT WEATHER AND/OR OBSTRUCTIONS TO VISIBILITY.

MAZALL-242200-
EASTERN MASSACHUSETTS
  
CITY           SKY/WX    TMP DP  RH WIND       PRES   REMARKS
BOSTON         PTSUNNY   62  40  44 W20G29    29.80R                  
BEVERLY        MOSUNNY   58  47  66 W15G24    29.79R                  
LAWRENCE       PTSUNNY   58  46  64 W14G21    29.80R                  
BEDFORD        PTSUNNY   62  41  46 W18G29    29.79R                  
NORWOOD        PTSUNNY   66  43  43 W13G25    29.81R                  
MARSHFIELD     PTSUNNY   64  37  36 VRB7G15   29.78R                  
PLYMOUTH       PTSUNNY   64  39  39 W13G23    29.78R                  
TAUNTON        PTSUNNY   67  38  34 W9G21     29.79R                  
NEW BEDFORD    PTSUNNY   66  41  40 W13       29.80R                  
$$

MAZALL-242200-
CAPE COD AND THE ISLANDS
  
CITY           SKY/WX    TMP DP  RH WIND       PRES   REMARKS
FALMOUTH       SUNNY     59  45  58 SW17      29.80S                  
HYANNIS        SUNNY     58  44  60 SW15      29.79R                  
CHATHAM        SUNNY     54  47  77 SW6G20    29.82R                  
PROVINCETOWN   SUNNY     58  47  66 S8        29.80R                  
NANTUCKET      SUNNY     52  46  80 SW17      29.84R                  
MARTHAS VNYRD  SUNNY     59  47  64 S13       29.82S                  
$$
 
MAZALL-242200-
CENTRAL AND WESTERN MASSACHUSETTS
  
CITY           SKY/WX    TMP DP  RH WIND       PRES   REMARKS
WORCESTER      CLOUDY    58  38  47 NW23G39   29.83R                  
FITCHBURG      LGT RAIN  54  44  69 W9G22     29.84R                  
ORANGE         CLOUDY    52  47  83 NW3       29.87R                  
SPRINGFIELD    PTSUNNY   62  40  44 NW15G24   29.82R                  
WESTFIELD      SUNNY     62  46  55 NW20G28   29.85S                  
NORTH ADAMS    LGT RAIN  50  42  74 W7        29.91R                  
PITTSFIELD     MOSUNNY   55  37  50 NW22G36   29.88R                  
$$
 
RIZALL-242200-
RHODE ISLAND
  
CITY           SKY/WX    TMP DP  RH WIND       PRES   REMARKS
PROVIDENCE     MOSUNNY   64  41  42 W13       29.81R                  
NEWPORT        CLOUDY    58  44  60 SW7       29.82R                  
BLOCK ISLAND   MOSUNNY   56  43  61 SW15G21   29.85R                  
SMITHFIELD     MOSUNNY   64  40  41 NW16      29.82R                  
WESTERLY       MOSUNNY   60  42  51 W7G18     29.83R                  
$$
 
CTZALL-242200-
CONNECTICUT
  
CITY           SKY/WX    TMP DP  RH WIND       PRES   REMARKS
BRADLEY INTL   PTSUNNY   64  40  41 NW16G28   29.85R                  
HARTFORD       MOSUNNY   67  40  37 NW10G22   29.83R                  
PLAINVILLE     MOCLDY    67  38  33 N10G17    29.84R                  
BRIDGEPORT     CLOUDY    64  39  39 NW23G37   29.86R                  
DANBURY        MOSUNNY   64  39  39 W10G21    29.87R                  
GROTON         MOSUNNY   64  45  49 SW9       29.83R                  
NEW HAVEN      PTSUNNY   68  42  38 NW16G25   29.84R                  
CHESTER        MOSUNNY   66  41  39 W6        29.84R                  
MERIDEN        MOSUNNY   67  34  29 NW15G24   29.84R                  
WILLIMANTIC    MOSUNNY   66  38  35 NW15G32   29.84R                  
OXFORD         PTSUNNY   62  38  40 W10G17    29.87R                  
$$

MEZ002-015-021-024-NHZ003-005-008-011-012-014-VTZ005-008-242200-
NORTHERN NEW ENGLAND
  
CITY           SKY/WX    TMP DP  RH WIND       PRES   REMARKS
PORTLAND ME    CLOUDY    56  48  74 W10       29.76R                  
BANGOR ME      LGT RAIN  48  42  80 S9        29.72R                  
CONCORD NH     CLOUDY    59  38  45 NW22G33   29.83R                  
MANCHESTER NH  LGT RAIN  56  45  66 NW13G21   29.80R                  
NASHUA NH      LGT RAIN  54  48  80 NW12G23   29.83R                  
PORTSMOUTH NH  PTSUNNY   56  49  78 W5        29.77R                  
JAFFREY NH     CLOUDY    54  43  66 VRB7G20   29.85R                  
KEENE NH       CLOUDY    52  41  66 N21G28    29.88R                  
BURLINGTON VT  CLOUDY    37  27  67 N9G21     30.06R WCI  30          
MT. WASHINGTON BLWGSNOW  14  14 100 NW61        N/A  VSB 0   WCI -13  
$$

NYZ052-076-242200-
EASTERN NEW YORK
  
CITY           SKY/WX    TMP DP  RH WIND       PRES   REMARKS
ALBANY         PTSUNNY   59  40  49 W20G29    29.93R                  
NEW YORK CITY  PTSUNNY   64  40  41 NW16G26   29.87R                  
$$
 
ANZALL-242200-
MARINE OBSERVATIONS
  
STATION/POSITION TIME  TEMP    WIND        PRES    VSBY  WAVE
                       AIR SEA DIR/SP/G                  HT/PER
                 (UTC) (F)     (DEG/KT/KT) (MB)    (MI)  (FT/S)
BOSTON BUOY      2050   52 45  300/ 16/ 21 1009.2R         4/ 9
BUZZARDS BAY     2000   50     220/ 14/ 15 1009.7F
NANTUCKET SOUND  2050   50 48  210/ 14/ 16 1008.9F         2/ 4
MASS BAY-STELLWA 1904   48 45  210/  8/ 10 1008.0F  1 7/8  5/ 8
ISLE OF SHOALS   2000   51     160/ 10/ 11 1006.6F
S OF BLOCK IS    2056      46                N/A           5/10
$$

......................KEY.........................
  SKY/WX - SKY CONDITION/PRESENT WEATHER
  TMP    - TEMPERATURE IN FAHRENHEIT
  DWPT   - DEWPOINT IN FAHRENHEIT
  RH     - RELATIVE HUMIDITY IN PERCENT
  WIND   - DIRECTION AND SPEED IN MPH
  PRES   - MEAN SEA LEVEL PRESSURE IN INCHES OF HG
  WCI    - WIND CHILL INDEX
  VSB    - VISIBILITY IN MILES
  HX     - HEAT INDEX
  TC     - TEMPERATURE IN CELSIUS
  VRB    - VARIABLE WIND DIRECTION
  N/A    - NOT AVAILABLE